DIAMANT DEB, 2684

Orbit data source: Space-Track

DIAMANT DEB, 2684 is space debris in LEO originally from a launch on Wed, 15 Feb 1967 UTC launched from the Hamma Guira Space Track Range (HGSTR). Debris objects in space refer to the collection of defunct objects orbiting the Earth. Examples of debris include non-operational satellites, rocket bodies, and fragments generated from explosions, collisions, or faulty payload assembly.

Loading next visibility...
Identifier
2684, 1967-014C
Orbit
LEO
Last TLE update
2 days ago
Origin
Manufacturer
Unknown
Mission
Spacecraft
Bus & Motor
Unknown
Mass
Unknown
Launch date (UTC)
1967-02-15 (58 years ago)
Launch vehicle
Unknown
Launch site
Hamma Guira Space Track Range (HGSTR)
Object type
Payload
Rocket body
Debris
Shape & HBR
Unknown
Radar Cross Section
Small (<0.1 m²)

Expand to show TLE details & history

TLE from 2 days ago
0 DIAMANT DEB
1 02684U 67014C   25187.33995147  .00001314  00000-0  33544-3 0  9993
2 02684  39.9562 280.8819 0452777  73.8258 291.1833 14.06472942892237
Epoch: 2025-07-06T08:09Z
TLE epoch observation values (Epoch: 2025-07-06T08:09:31.807Z)
Latitude
-0.00001°
Longitude
-126.0657°
Altitude
765.562 km
Speed
7.527 km/s
True Right ascension
18h 43m 31s
True Declination
0° 00' 00"
Sunlit
Object was in full shadow at epoch
Visualization orbit readout
Latitude
-14.88236°
Longitude
62.73825°
Altitude
1,013.29 km
Speed
7.275 km/s
Apparent Right ascension
07h 15m 36s
Apparent Declination
-26° 19' 38"
Sunlit
Object is in daylight
Visualization observer readout
Local Sidereal Time
19:11:01
Azimuth
355.639° N
Elevation
-76.378°
Doppler factor
1
Orbital elements
Apogee altitude
1,202.146 km
Perigee altitude
545.445 km
Semi-major axis
7,251.932 km
Eccentricity
0.04528
Inclination
39.9562°
RAAN
280.8819°
Arg. of periapsis
73.8258°
True anomaly
Unknown
Mean anomaly
291.1833°
Eccentric anomaly
Unknown
Mean motion
3.51449 °/min
Orbital period
102.43 mins
BSTAR
0.00033544
Loading maneuver chart data...
Loading SW <> Apogee altitude chart data...
Loading historical data...
Loading historical data...
Loading historical data...
Loading historical data...
Loading historical data...
Loading historical data...
Loading historical data...

DIAMANT DEB Visibility forecast

Observer location: undefined°, undefined°

Span
Click to sort rows by Start time (UTC) header in descending order
Start Az.
Max El. time (UTC)
Max El. Az.
Max El.
End time (UTC)
End Az.
4 mins2025-07-08 08:03:31.587Z177.514° S2025-07-08 08:05:31.587Z150.749° SSE13.983°2025-07-08 08:07:31.587Z120.905° SE
6 mins2025-07-08 09:50:31.587Z226.415° WSW2025-07-08 09:53:31.587Z135.82° SSE35.729°2025-07-08 09:56:31.587Z87.011° E
6 mins2025-07-08 11:38:31.587Z267.589° W2025-07-08 11:40:31.587Z275.365° WNW44.894°2025-07-08 11:44:31.587Z87.98° E
7 mins2025-07-08 13:25:31.587Z272.76° WNW2025-07-08 13:28:31.587Z174.728° S41.439°2025-07-08 13:32:31.587Z114.627° SE
5 mins2025-07-08 15:13:31.587Z247.324° WSW2025-07-08 15:15:31.587Z212.563° SW19.989°2025-07-08 15:18:31.587Z166.183° S
|